RYR35RC EGSS-LRCL

Flight info

Callsign RYR35RC
Flight time N/A
Altitude 37000
Route CLN P44 RATLO M197 REDFA DCT TACHA DCT SUSET DCT OTMEC DCT EXOBA DCT NOMKA L620 EKPEK DCT PIKIB DCT OMELO DCT ODLIV DCT OMIFU DCT MAKAL DCT PITOK DCT BADOR DCT LARMU
Aircraft B38M/M-SDE1FGHILORVWXY/HB1

Departure

Time N/A
Airport London Stansted Airport (EGSS)

Arrival

Time 2026-04-26 15:11
Airport Avram Iancu Cluj International Airport (LRCL)
Time Latitude Longitude Altitude Speed Heading
2026-04-26 13:11 52.18107 2.83513 28511 ft 446 kts 70°
2026-04-26 13:12 52.19012 2.88360 28846 ft 448 kts 70°
2026-04-26 13:12 52.19919 2.93231 29176 ft 451 kts 70°
2026-04-26 13:12 52.20830 2.98143 29523 ft 453 kts 70°
2026-04-26 13:12 52.21741 3.03066 29880 ft 455 kts 70°
2026-04-26 13:13 52.22656 3.08018 30194 ft 457 kts 70°
2026-04-26 13:13 52.23573 3.12994 30486 ft 459 kts 70°
2026-04-26 13:13 52.24493 3.17998 30784 ft 461 kts 70°
2026-04-26 13:13 52.25337 3.23074 31001 ft 467 kts 78°
2026-04-26 13:14 52.25412 3.28379 31324 ft 470 kts 96°
2026-04-26 13:14 52.24972 3.33575 31663 ft 470 kts 94°
2026-04-26 13:14 52.24384 3.44381 32037 ft 476 kts 94°
2026-04-26 13:15 52.24065 3.49782 32263 ft 479 kts 94°
2026-04-26 13:15 52.23732 3.55201 32559 ft 480 kts 94°
2026-04-26 13:15 52.23400 3.60554 32772 ft 482 kts 94°
2026-04-26 13:15 52.23171 3.64240 32925 ft 484 kts 94°
2026-04-26 13:16 52.22711 3.71547 33293 ft 485 kts 94°
2026-04-26 13:16 52.22369 3.76944 33595 ft 485 kts 94°
2026-04-26 13:16 52.22020 3.82401 33932 ft 484 kts 94°
2026-04-26 13:16 52.21669 3.87853 34264 ft 483 kts 94°
2026-04-26 13:17 52.20961 3.98746 34824 ft 482 kts 94°
2026-04-26 13:17 52.20604 4.04155 35182 ft 479 kts 94°
2026-04-26 13:18 52.19887 4.14940 35701 ft 478 kts 94°
2026-04-26 13:18 52.19525 4.20323 35952 ft 477 kts 94°
2026-04-26 13:18 52.18797 4.31058 36416 ft 476 kts 94°
2026-04-26 13:19 52.18549 4.34675 36561 ft 476 kts 94°
2026-04-26 13:19 52.18059 4.41774 36851 ft 475 kts 94°
2026-04-26 13:19 52.17687 4.47123 37058 ft 475 kts 95°
2026-04-26 13:19 52.17315 4.52450 37255 ft 474 kts 95°
2026-04-26 13:20 52.16938 4.57794 37359 ft 475 kts 95°
2026-04-26 13:20 52.16303 4.66741 37305 ft 473 kts 95°
2026-04-26 13:21 52.15542 4.77312 37346 ft 474 kts 95°
2026-04-26 13:21 52.14768 4.87942 37339 ft 473 kts 95°
2026-04-26 13:22 52.13984 4.98590 37331 ft 473 kts 95°
2026-04-26 13:22 52.13196 5.09198 37334 ft 472 kts 95°
2026-04-26 13:23 52.12308 5.19807 37328 ft 473 kts 96°
2026-04-26 13:23 52.11390 5.30469 37318 ft 479 kts 96°
2026-04-26 13:24 52.10457 5.41253 37323 ft 483 kts 96°
2026-04-26 13:24 52.09512 5.52057 37315 ft 482 kts 96°
2026-04-26 13:25 52.08558 5.62845 37316 ft 482 kts 96°
2026-04-26 13:25 52.07595 5.73626 37319 ft 482 kts 97°
2026-04-26 13:26 52.06568 5.84412 37316 ft 483 kts 99°
2026-04-26 13:26 52.05368 5.95144 37324 ft 482 kts 99°
2026-04-26 13:27 52.04185 6.05851 37317 ft 482 kts 99°
2026-04-26 13:27 52.02994 6.16558 37316 ft 482 kts 99°
2026-04-26 13:28 52.01793 6.27265 37318 ft 482 kts 99°
2026-04-26 13:28 52.00582 6.37962 37329 ft 482 kts 99°
2026-04-26 13:29 51.99364 6.48638 37304 ft 480 kts 99°
2026-04-26 13:29 51.98138 6.59292 37320 ft 481 kts 99°
2026-04-26 13:30 51.96902 6.69941 37325 ft 480 kts 99°
2026-04-26 13:30 51.95655 6.80591 37303 ft 481 kts 100°
2026-04-26 13:31 51.94400 6.91234 37307 ft 480 kts 100°
2026-04-26 13:31 51.93138 7.01840 37336 ft 479 kts 100°
2026-04-26 13:32 51.91866 7.12450 37305 ft 479 kts 100°
2026-04-26 13:32 51.90585 7.23047 37302 ft 480 kts 101°
2026-04-26 13:33 51.89295 7.33633 37334 ft 480 kts 101°
2026-04-26 13:33 51.87998 7.44192 37318 ft 478 kts 101°
2026-04-26 13:34 51.86691 7.54749 37296 ft 478 kts 101°
2026-04-26 13:34 51.85375 7.65298 37325 ft 479 kts 101°
2026-04-26 13:35 51.84050 7.75839 37329 ft 478 kts 101°
2026-04-26 13:35 51.82713 7.86388 37291 ft 478 kts 101°
2026-04-26 13:36 51.81382 7.96817 37317 ft 478 kts 101°
2026-04-26 13:36 51.80022 8.07390 37322 ft 477 kts 101°
2026-04-26 13:37 51.78664 8.17894 37285 ft 477 kts 102°
2026-04-26 13:37 51.77307 8.28318 37302 ft 478 kts 102°
2026-04-26 13:38 51.75881 8.38786 37321 ft 477 kts 102°
2026-04-26 13:38 51.74428 8.49311 37308 ft 477 kts 102°
2026-04-26 13:39 51.72980 8.59757 37305 ft 477 kts 102°
2026-04-26 13:39 51.71525 8.70183 37325 ft 476 kts 102°
2026-04-26 13:40 51.70062 8.80593 37322 ft 476 kts 103°
2026-04-26 13:40 51.68590 8.90989 37311 ft 476 kts 103°
2026-04-26 13:41 51.67110 9.01376 37308 ft 476 kts 103°
2026-04-26 13:41 51.65630 9.11689 37300 ft 476 kts 103°
2026-04-26 13:42 51.64132 9.22065 37298 ft 476 kts 103°
2026-04-26 13:42 51.62624 9.32433 37288 ft 476 kts 103°
2026-04-26 13:43 51.61107 9.42794 37294 ft 476 kts 103°
2026-04-26 13:43 51.59579 9.53157 37288 ft 476 kts 103°
2026-04-26 13:44 51.58044 9.63503 37306 ft 476 kts 103°
2026-04-26 13:44 51.56500 9.73850 37290 ft 476 kts 104°
2026-04-26 13:45 51.54945 9.84192 37298 ft 476 kts 104°
2026-04-26 13:45 51.53380 9.94531 37290 ft 476 kts 104°
2026-04-26 13:46 51.51806 10.04865 37295 ft 476 kts 104°
2026-04-26 13:46 51.50225 10.15185 37309 ft 476 kts 104°
2026-04-26 13:47 51.48632 10.25511 37284 ft 477 kts 104°
2026-04-26 13:47 51.47041 10.35767 37298 ft 477 kts 104°
2026-04-26 13:48 51.45422 10.46156 37301 ft 477 kts 104°
2026-04-26 13:48 51.43797 10.56466 37299 ft 477 kts 104°
2026-04-26 13:49 51.42168 10.66772 37306 ft 477 kts 105°
2026-04-26 13:49 51.40541 10.77001 37298 ft 477 kts 105°
2026-04-26 13:50 51.38893 10.87301 37310 ft 477 kts 105°
2026-04-26 13:50 51.37235 10.97587 37306 ft 477 kts 105°
2026-04-26 13:51 51.35565 11.07865 37315 ft 477 kts 105°
2026-04-26 13:51 51.33883 11.18162 37307 ft 479 kts 105°
2026-04-26 13:52 51.32194 11.28456 37311 ft 479 kts 105°
2026-04-26 13:52 51.30502 11.38757 37307 ft 479 kts 105°
2026-04-26 13:53 51.28790 11.49044 37305 ft 479 kts 106°
2026-04-26 13:53 51.27060 11.59324 37308 ft 480 kts 105°
2026-04-26 13:54 51.25326 11.69616 37314 ft 480 kts 106°
2026-04-26 13:54 51.23581 11.79908 37306 ft 480 kts 106°
2026-04-26 13:55 51.21245 11.93594 37305 ft 480 kts 106°
2026-04-26 13:56 51.18303 12.10762 37310 ft 482 kts 106°
2026-04-26 13:56 51.16527 12.21045 37310 ft 480 kts 106°
2026-04-26 13:57 51.14729 12.31290 37310 ft 480 kts 107°
2026-04-26 13:57 51.12923 12.41524 37315 ft 480 kts 107°
2026-04-26 13:58 51.11105 12.51767 37317 ft 482 kts 107°
2026-04-26 13:58 51.09288 12.61953 37317 ft 482 kts 107°
2026-04-26 13:59 51.07444 12.72198 37321 ft 482 kts 107°
2026-04-26 13:59 51.05593 12.82438 37316 ft 482 kts 107°
2026-04-26 14:00 51.01858 13.02912 37319 ft 483 kts 107°
2026-04-26 14:01 50.99973 13.13162 37316 ft 483 kts 107°
2026-04-26 14:01 50.98082 13.23386 37310 ft 483 kts 107°
2026-04-26 14:02 50.96198 13.33610 37309 ft 483 kts 107°
2026-04-26 14:02 50.94328 13.43866 37313 ft 485 kts 107°
2026-04-26 14:03 50.92442 13.54138 37295 ft 485 kts 107°
2026-04-26 14:03 50.90549 13.64392 37301 ft 485 kts 107°
2026-04-26 14:04 50.88632 13.74641 37299 ft 485 kts 107°
2026-04-26 14:04 50.86693 13.84872 37299 ft 485 kts 107°
2026-04-26 14:05 50.84751 13.95090 37298 ft 485 kts 108°
2026-04-26 14:05 50.81951 14.04643 37257 ft 474 kts 128°
2026-04-26 14:05 50.80682 14.07431 37456 ft 473 kts 126°
2026-04-26 14:06 50.78952 14.11901 37268 ft 478 kts 123°
2026-04-26 14:06 50.77195 14.16356 37383 ft 478 kts 124°
2026-04-26 14:06 50.75404 14.20811 37304 ft 482 kts 124°
2026-04-26 14:07 50.71190 14.31171 37303 ft 484 kts 124°
2026-04-26 14:07 50.68138 14.38644 37277 ft 483 kts 124°
2026-04-26 14:08 50.64498 14.47530 37290 ft 482 kts 124°
2026-04-26 14:08 50.60856 14.56391 37286 ft 482 kts 124°
2026-04-26 14:09 50.57204 14.65245 37286 ft 483 kts 124°
2026-04-26 14:09 50.53557 14.74058 37281 ft 484 kts 125°
2026-04-26 14:10 50.49857 14.82973 37282 ft 484 kts 125°
2026-04-26 14:10 50.46189 14.91813 37277 ft 484 kts 125°
2026-04-26 14:11 50.40663 15.05091 37275 ft 486 kts 125°
2026-04-26 14:11 50.36984 15.13890 37266 ft 486 kts 125°
2026-04-26 14:12 50.33276 15.22733 37268 ft 486 kts 125°
2026-04-26 14:12 50.29570 15.31542 37264 ft 484 kts 125°
2026-04-26 14:13 50.23997 15.44731 37265 ft 486 kts 125°
2026-04-26 14:14 50.20260 15.53538 37265 ft 486 kts 125°
2026-04-26 14:14 50.16514 15.62336 37262 ft 486 kts 125°
2026-04-26 14:15 50.12765 15.71113 37264 ft 486 kts 125°
2026-04-26 14:15 50.09004 15.79888 37265 ft 489 kts 125°
2026-04-26 14:16 50.05217 15.88698 37268 ft 490 kts 125°
2026-04-26 14:16 50.01494 15.97562 37235 ft 490 kts 119°
2026-04-26 14:17 49.98306 16.06933 37272 ft 492 kts 118°
2026-04-26 14:17 49.95130 16.16315 37256 ft 491 kts 118°
2026-04-26 14:18 49.91937 16.25728 37240 ft 494 kts 118°
2026-04-26 14:18 49.88733 16.35140 37248 ft 493 kts 118°
2026-04-26 14:19 49.85520 16.44543 37239 ft 493 kts 118°
2026-04-26 14:19 49.82303 16.53924 37262 ft 494 kts 118°
2026-04-26 14:20 49.79062 16.63338 37236 ft 496 kts 118°
2026-04-26 14:20 49.75810 16.72749 37226 ft 496 kts 118°
2026-04-26 14:21 49.72548 16.82153 37239 ft 496 kts 118°
2026-04-26 14:21 49.69280 16.91547 37246 ft 496 kts 118°
2026-04-26 14:22 49.65999 17.00936 37228 ft 497 kts 118°
2026-04-26 14:22 49.62703 17.10337 37233 ft 498 kts 118°
2026-04-26 14:23 49.59405 17.19711 37232 ft 498 kts 119°
2026-04-26 14:23 49.56103 17.29060 37230 ft 495 kts 119°
2026-04-26 14:24 49.52800 17.38375 37218 ft 496 kts 119°
2026-04-26 14:24 49.49505 17.47636 37228 ft 497 kts 119°
2026-04-26 14:25 49.46182 17.56947 37237 ft 497 kts 119°
2026-04-26 14:25 49.42848 17.66250 37227 ft 497 kts 119°
2026-04-26 14:26 49.39510 17.75531 37226 ft 497 kts 119°
2026-04-26 14:26 49.36162 17.84810 37228 ft 497 kts 119°
2026-04-26 14:27 49.32804 17.94080 37223 ft 497 kts 120°
2026-04-26 14:27 49.29446 18.03326 37230 ft 497 kts 120°
2026-04-26 14:28 49.26073 18.12581 37217 ft 498 kts 120°
2026-04-26 14:28 49.22498 18.21670 37225 ft 498 kts 122°
2026-04-26 14:29 49.18849 18.30685 37208 ft 499 kts 122°
2026-04-26 14:29 49.15215 18.39697 37224 ft 497 kts 122°
2026-04-26 14:30 49.11584 18.48678 37222 ft 498 kts 122°
2026-04-26 14:30 49.07930 18.57682 37217 ft 499 kts 122°
2026-04-26 14:31 49.04267 18.66680 37210 ft 499 kts 122°
2026-04-26 14:31 49.00600 18.75655 37196 ft 499 kts 122°
2026-04-26 14:32 48.96925 18.84622 37198 ft 501 kts 122°
2026-04-26 14:32 48.93229 18.93608 37190 ft 501 kts 122°
2026-04-26 14:33 48.89547 19.02531 37180 ft 501 kts 122°
2026-04-26 14:33 48.87301 19.07960 37186 ft 501 kts 122°
2026-04-26 14:34 48.85838 19.11488 37160 ft 501 kts 122°
2026-04-26 14:34 48.82122 19.20434 37205 ft 503 kts 122°
2026-04-26 14:35 48.78376 19.29421 37151 ft 504 kts 122°
2026-04-26 14:35 48.74632 19.38371 37159 ft 501 kts 122°
2026-04-26 14:36 48.70895 19.47277 37164 ft 501 kts 123°
2026-04-26 14:36 48.67148 19.56177 37155 ft 503 kts 122°
2026-04-26 14:37 48.63377 19.65103 37134 ft 504 kts 123°
2026-04-26 14:37 48.59595 19.74027 37119 ft 504 kts 123°
2026-04-26 14:38 48.55807 19.82935 37123 ft 505 kts 123°
2026-04-26 14:38 48.52006 19.91843 37140 ft 507 kts 123°
2026-04-26 14:39 48.48179 20.00783 37133 ft 508 kts 123°
2026-04-26 14:39 48.44343 20.09716 37109 ft 507 kts 123°
2026-04-26 14:40 48.40503 20.18630 37104 ft 508 kts 123°
2026-04-26 14:40 48.36660 20.27526 37112 ft 506 kts 123°
2026-04-26 14:41 48.32833 20.36379 37103 ft 504 kts 122°
2026-04-26 14:41 48.29094 20.45308 37103 ft 505 kts 122°
2026-04-26 14:42 48.25344 20.54215 37111 ft 505 kts 122°
2026-04-26 14:42 48.21582 20.63121 37113 ft 507 kts 122°
2026-04-26 14:43 48.17808 20.72026 36895 ft 504 kts 122°
2026-04-26 14:43 48.15928 20.76450 36607 ft 503 kts 122°
2026-04-26 14:43 48.14072 20.80813 36315 ft 504 kts 122°
2026-04-26 14:43 48.12187 20.85234 36034 ft 505 kts 122°
2026-04-26 14:44 48.10293 20.89670 35773 ft 506 kts 122°
2026-04-26 14:44 48.08395 20.94108 35496 ft 508 kts 122°
2026-04-26 14:44 48.06483 20.98573 35217 ft 510 kts 122°
2026-04-26 14:44 48.04566 21.03039 34945 ft 511 kts 122°
2026-04-26 14:45 48.02643 21.07514 34681 ft 512 kts 122°
2026-04-26 14:45 48.01344 21.10534 34499 ft 513 kts 122°
2026-04-26 14:45 47.98785 21.16469 34118 ft 514 kts 123°
2026-04-26 14:45 47.96849 21.20952 33825 ft 513 kts 122°
2026-04-26 14:46 47.94913 21.25427 33524 ft 514 kts 122°
2026-04-26 14:46 47.92971 21.29908 33222 ft 515 kts 122°
2026-04-26 14:46 47.91040 21.34357 32921 ft 506 kts 123°
2026-04-26 14:46 47.89144 21.38718 32627 ft 497 kts 123°
2026-04-26 14:47 47.87279 21.43002 32308 ft 489 kts 123°
2026-04-26 14:47 47.85444 21.47209 32007 ft 481 kts 123°
2026-04-26 14:47 47.83638 21.51344 31706 ft 473 kts 123°
2026-04-26 14:47 47.81856 21.55418 31407 ft 466 kts 123°
2026-04-26 14:48 47.80102 21.59423 31103 ft 459 kts 123°
2026-04-26 14:48 47.78356 21.63402 30829 ft 460 kts 123°
2026-04-26 14:48 47.76607 21.67380 30549 ft 459 kts 123°
2026-04-26 14:48 47.74862 21.71346 30179 ft 456 kts 123°
2026-04-26 14:49 47.73121 21.75298 29505 ft 459 kts 123°
2026-04-26 14:49 47.71374 21.79257 28959 ft 458 kts 122°
2026-04-26 14:49 47.69634 21.83195 28562 ft 454 kts 122°
2026-04-26 14:49 47.67907 21.87097 28098 ft 451 kts 122°
2026-04-26 14:50 47.66186 21.90979 27632 ft 450 kts 122°
2026-04-26 14:50 47.64469 21.94850 27186 ft 448 kts 122°
2026-04-26 14:50 47.62759 21.98699 26720 ft 447 kts 122°
2026-04-26 14:50 47.61050 22.02543 26271 ft 446 kts 122°
2026-04-26 14:51 47.59345 22.06370 25835 ft 445 kts 122°
2026-04-26 14:51 47.57648 22.10194 25343 ft 443 kts 120°
2026-04-26 14:51 47.56258 22.14241 24848 ft 440 kts 109°
2026-04-26 14:51 47.55023 22.18377 24489 ft 437 kts 111°
2026-04-26 14:52 47.53764 22.22460 24087 ft 436 kts 111°
2026-04-26 14:52 47.52501 22.26533 23636 ft 435 kts 111°
2026-04-26 14:52 47.51237 22.30605 23145 ft 435 kts 111°
2026-04-26 14:52 47.50402 22.33291 22845 ft 434 kts 111°
2026-04-26 14:53 47.48720 22.38692 22292 ft 430 kts 111°
2026-04-26 14:53 47.47892 22.41349 22009 ft 429 kts 111°
2026-04-26 14:53 47.46645 22.45342 21583 ft 427 kts 111°
2026-04-26 14:53 47.44965 22.50584 20962 ft 428 kts 115°
2026-04-26 14:54 47.43988 22.53200 20452 ft 434 kts 116°
2026-04-26 14:54 47.42522 22.57141 19657 ft 442 kts 115°
2026-04-26 14:54 47.40558 22.62493 18627 ft 453 kts 115°
2026-04-26 14:54 47.39544 22.65271 18129 ft 457 kts 115°
2026-04-26 14:55 47.38045 22.69380 17708 ft 452 kts 115°
2026-04-26 14:55 47.36560 22.73444 17290 ft 447 kts 115°
2026-04-26 14:55 47.35095 22.77447 16859 ft 443 kts 115°
2026-04-26 14:55 47.33659 22.81366 16499 ft 437 kts 115°
2026-04-26 14:56 47.32218 22.85293 16108 ft 433 kts 115°
2026-04-26 14:56 47.30791 22.89177 15669 ft 430 kts 115°
2026-04-26 14:56 47.29372 22.93032 15282 ft 426 kts 115°
2026-04-26 14:56 47.27959 22.96867 14810 ft 421 kts 114°
2026-04-26 14:57 47.26581 23.00593 14392 ft 408 kts 114°
2026-04-26 14:57 47.25245 23.04206 14032 ft 396 kts 114°
2026-04-26 14:57 47.23947 23.07713 13618 ft 385 kts 114°
2026-04-26 14:57 47.22685 23.11122 13206 ft 374 kts 114°
2026-04-26 14:58 47.21454 23.14439 12846 ft 363 kts 114°
2026-04-26 14:58 47.20262 23.17648 12482 ft 353 kts 114°
2026-04-26 14:58 47.19102 23.20766 12159 ft 343 kts 114°
2026-04-26 14:58 47.17974 23.23795 11801 ft 333 kts 114°
2026-04-26 14:59 47.16875 23.26743 11480 ft 325 kts 114°
2026-04-26 14:59 47.15797 23.29632 11171 ft 324 kts 115°
2026-04-26 14:59 47.14700 23.32575 10870 ft 332 kts 115°
2026-04-26 14:59 47.13945 23.34596 10645 ft 335 kts 115°
2026-04-26 15:00 47.12454 23.38577 10199 ft 335 kts 116°
2026-04-26 15:00 47.11343 23.41542 10032 ft 328 kts 116°
2026-04-26 15:00 47.10250 23.44454 9753 ft 325 kts 116°
2026-04-26 15:00 47.09160 23.47356 9376 ft 325 kts 116°
2026-04-26 15:01 47.08068 23.50261 9001 ft 325 kts 116°
2026-04-26 15:01 47.06979 23.53158 8645 ft 323 kts 116°
2026-04-26 15:01 47.05893 23.56037 8325 ft 322 kts 116°
2026-04-26 15:01 47.04811 23.58903 7991 ft 321 kts 116°
2026-04-26 15:02 47.03732 23.61760 7641 ft 318 kts 116°
2026-04-26 15:02 47.02675 23.64557 7290 ft 309 kts 116°
2026-04-26 15:02 47.01647 23.67268 6960 ft 300 kts 116°
2026-04-26 15:02 47.00658 23.69875 6728 ft 283 kts 116°
2026-04-26 15:03 46.99727 23.72326 6453 ft 268 kts 116°
2026-04-26 15:03 46.98843 23.74654 6132 ft 256 kts 116°
2026-04-26 15:03 46.97996 23.76882 5795 ft 244 kts 116°
2026-04-26 15:03 46.97190 23.79002 5543 ft 232 kts 115°
2026-04-26 15:04 46.96422 23.81016 5309 ft 221 kts 115°
2026-04-26 15:04 46.95691 23.82926 5056 ft 210 kts 114°
2026-04-26 15:04 46.94984 23.84784 4909 ft 206 kts 115°
2026-04-26 15:04 46.94299 23.86578 4890 ft 199 kts 116°
2026-04-26 15:05 46.93338 23.88021 4676 ft 201 kts 152°
2026-04-26 15:05 46.92500 23.88568 4551 ft 200 kts 161°
2026-04-26 15:05 46.90741 23.89491 4488 ft 201 kts 162°
2026-04-26 15:05 46.89437 23.90148 4442 ft 195 kts 163°
2026-04-26 15:06 46.88173 23.90774 4385 ft 190 kts 163°
2026-04-26 15:06 46.86924 23.91384 4243 ft 190 kts 163°
2026-04-26 15:06 46.85641 23.91732 4049 ft 185 kts 192°
2026-04-26 15:06 46.84520 23.91057 3734 ft 167 kts 232°
2026-04-26 15:07 46.83465 23.88318 3464 ft 155 kts 258°
2026-04-26 15:07 46.83040 23.86856 3422 ft 159 kts 255°
2026-04-26 15:07 46.82602 23.85382 3249 ft 157 kts 257°
2026-04-26 15:08 46.82218 23.83905 3049 ft 155 kts 259°
2026-04-26 15:08 46.81867 23.82418 2873 ft 153 kts 261°
2026-04-26 15:08 46.81538 23.80976 2669 ft 147 kts 262°
2026-04-26 15:08 46.81223 23.79574 2468 ft 145 kts 260°
2026-04-26 15:09 46.80915 23.78176 2297 ft 145 kts 259°
2026-04-26 15:09 46.80608 23.76784 2078 ft 144 kts 259°
2026-04-26 15:09 46.80293 23.75387 1879 ft 145 kts 259°
2026-04-26 15:09 46.79984 23.74006 1683 ft 141 kts 261°
2026-04-26 15:10 46.79686 23.72679 1474 ft 135 kts 261°
2026-04-26 15:10 46.79500 23.71803 1336 ft 138 kts 257°
2026-04-26 15:10 46.79105 23.70002 1107 ft 137 kts 253°
2026-04-26 15:10 46.78824 23.68739 1028 ft 117 kts 252°
2026-04-26 15:11 46.78642 23.67938 1037 ft 57 kts 251°
2026-04-26 15:11 46.78531 23.67446 1038 ft 32 kts 252°
2026-04-26 15:11 46.78481 23.67228 1041 ft 16 kts 245°
2026-04-26 15:11 46.78388 23.67215 1040 ft 7 kts 135°
2026-04-26 15:12 46.78387 23.67216 1040 ft 0 kts 135°
2026-04-26 15:12 46.78385 23.67220 1040 ft 2 kts 135°
2026-04-26 15:13 46.78370 23.67243 1040 ft 4 kts 134°
2026-04-26 15:13 46.78345 23.67292 1040 ft 8 kts 120°
2026-04-26 15:13 46.78343 23.67366 1040 ft 9 kts 77°
2026-04-26 15:13 46.78360 23.67482 1039 ft 16 kts 79°
2026-04-26 15:14 46.78385 23.67667 1038 ft 18 kts 79°
2026-04-26 15:14 46.78411 23.67858 1037 ft 20 kts 78°
2026-04-26 15:14 46.78439 23.68066 1036 ft 22 kts 79°
2026-04-26 15:14 46.78469 23.68284 1034 ft 22 kts 78°
2026-04-26 15:15 46.78501 23.68514 1033 ft 19 kts 78°
2026-04-26 15:15 46.78515 23.68613 1032 ft 11 kts 79°
2026-04-26 15:15 46.78533 23.68754 1032 ft 17 kts 79°
2026-04-26 15:15 46.78559 23.68954 1029 ft 23 kts 78°
2026-04-26 15:16 46.78591 23.69178 1029 ft 17 kts 78°
2026-04-26 15:16 46.78592 23.69322 1025 ft 8 kts 132°
2026-04-26 15:16 46.78532 23.69352 1026 ft 10 kts 175°
2026-04-26 15:16 46.78509 23.69383 1028 ft 6 kts 98°
2026-04-26 15:17 46.78497 23.69437 1026 ft 3 kts 161°
2026-04-26 15:17 46.78486 23.69441 1025 ft 0 kts 168°